| time (UTC) | temp F | wind direction | speed MPH | gust MPH | rain 1hr in | rain 24hr in | rain mn in | humidity % | barometer mb |
| 20260507043023 | 55 | 260 | 1.0 | 3.0 | 0.00 | 0.00 | 0.00 | 88 | 1020.3 |
| 20260507042509 | 55 | 218 | 2.0 | 3.0 | 0.00 | 0.00 | 0.00 | 89 | 1020.3 |
| 20260507042013 | 55 | 192 | 1.0 | 1.0 | 0.00 | 0.00 | 0.00 | 89 | 1020.0 |
| 20260507041513 | 55 | 213 | 1.0 | 2.0 | 0.00 | 0.00 | 0.00 | 89 | 1020.0 |
| 20260507041013 | 55 | 183 | 1.0 | 1.0 | 0.00 | 0.00 | 0.00 | 88 | 1020.3 |
| 20260507040509 | 55 | 187 | 2.0 | 2.0 | 0.00 | 0.00 | 0.00 | 88 | 1020.3 |
| 20260507040033 | 55 | 191 | 2.0 | 2.0 | 0.00 | 0.00 | 0.00 | 88 | 1020.3 |
| 20260507035509 | 55 | 178 | 1.0 | 1.0 | 0.00 | 0.00 | 0.00 | 88 | 1020.3 |
| 20260507035013 | 57 | 254 | 2.0 | 2.0 | 0.00 | 0.00 | 0.00 | 88 | 1020.3 |
| 20260507034512 | 55 | 264 | 1.0 | 1.0 | 0.00 | 0.00 | 0.00 | 89 | 1020.3 |
| 20260507034013 | 55 | 183 | 0.0 | 1.0 | 0.00 | 0.00 | 0.00 | 90 | 1020.3 |
| 20260507033509 | 57 | 178 | 0.0 | 1.0 | 0.00 | 0.00 | 0.00 | 90 | 1020.3 |
| 20260507033022 | 57 | 244 | 2.0 | 2.0 | 0.00 | 0.00 | 0.00 | 89 | 1020.3 |
| 20260507032510 | 57 | 216 | 2.0 | 3.0 | 0.00 | 0.00 | 0.00 | 89 | 1020.3 |
| 20260507032012 | 57 | 165 | 1.0 | 2.0 | 0.00 | 0.00 | 0.00 | 89 | 1020.0 |
| 20260507031512 | 57 | 261 | 2.0 | 4.0 | 0.00 | 0.00 | 0.00 | 90 | 1020.0 |
| 20260507031013 | 57 | 206 | 2.0 | 3.0 | 0.00 | 0.00 | 0.00 | 91 | 1020.3 |
| 20260507030509 | 57 | 199 | 2.0 | 2.0 | 0.00 | 0.00 | 0.00 | 91 | 1020.3 |
| 20260507030032 | 57 | 248 | 2.0 | 3.0 | 0.00 | 0.00 | 0.00 | 91 | 1020.3 |
| 20260507025509 | 57 | 247 | 1.0 | 1.0 | 0.00 | 0.00 | 0.00 | 91 | 1020.3 |
| 20260507025013 | 57 | 236 | 2.0 | 3.0 | 0.00 | 0.00 | 0.00 | 90 | 1020.3 |
| 20260507024514 | 57 | 249 | 3.0 | 4.0 | 0.00 | 0.00 | 0.00 | 91 | 1020.3 |
| 20260507024013 | 57 | 269 | 4.0 | 5.0 | 0.00 | 0.00 | 0.00 | 91 | 1020.3 |
| 20260507023509 | 57 | 180 | 1.0 | 1.0 | 0.00 | 0.00 | 0.00 | 91 | 1020.0 |
| 20260507023022 | 57 | 252 | 2.0 | 3.0 | 0.00 | 0.00 | 0.00 | 91 | 1020.0 |
| 20260507022510 | 57 | 194 | 1.0 | 2.0 | 0.00 | 0.00 | 0.00 | 91 | 1020.0 |
| 20260507022013 | 57 | 239 | 2.0 | 2.0 | 0.00 | 0.00 | 0.00 | 91 | 1020.3 |
| 20260507021512 | 57 | 180 | 1.0 | 1.0 | 0.00 | 0.00 | 0.00 | 92 | 1020.3 |
| 20260507021013 | 57 | 180 | 1.0 | 1.0 | 0.00 | 0.00 | 0.00 | 92 | 1020.3 |
| 20260507020509 | 57 | 267 | 3.0 | 3.0 | 0.00 | 0.00 | 0.00 | 91 | 1020.3 |
| 20260507020032 | 59 | 224 | 3.0 | 3.0 | 0.00 | 0.00 | 0.00 | 91 | 1020.0 |
| 20260507015510 | 59 | 292 | 3.0 | 3.0 | 0.00 | 0.00 | 0.00 | 90 | 1020.0 |
| 20260507015013 | 59 | 215 | 1.0 | 1.0 | 0.00 | 0.00 | 0.00 | 90 | 1020.0 |
| 20260507014513 | 59 | 172 | 0.0 | 0.0 | 0.00 | 0.00 | 0.00 | 90 | 1020.0 |
| 20260507014015 | 59 | 176 | 1.0 | 1.0 | 0.00 | 0.00 | 0.00 | 90 | 1020.0 |
| 20260507013510 | 59 | 249 | 2.0 | 3.0 | 0.00 | 0.00 | 0.00 | 90 | 1020.0 |
| 20260507013022 | 59 | 166 | 1.0 | 1.0 | 0.00 | 0.00 | 0.00 | 90 | 1020.0 |
| 20260507012509 | 59 | 233 | 2.0 | 2.0 | 0.00 | 0.00 | 0.00 | 89 | 1020.0 |
| 20260507012014 | 59 | 177 | 0.0 | 0.0 | 0.00 | 0.00 | 0.00 | 88 | 1020.0 |
| 20260507011512 | 59 | 182 | 1.0 | 1.0 | 0.00 | 0.00 | 0.00 | 88 | 1020.0 |
| 20260507011012 | 59 | 168 | 0.0 | 0.0 | 0.00 | 0.00 | 0.00 | 87 | 1020.0 |
| 20260507010509 | 59 | 180 | 1.0 | 1.0 | 0.00 | 0.00 | 0.00 | 87 | 1020.0 |
| 20260507010033 | 59 | 168 | 0.0 | 1.0 | 0.00 | 0.00 | 0.00 | 86 | 1020.0 |
| 20260507005509 | 59 | 225 | 2.0 | 2.0 | 0.00 | 0.00 | 0.00 | 85 | 1020.0 |
| 20260507005013 | 59 | 184 | 2.0 | 2.0 | 0.00 | 0.00 | 0.00 | 85 | 1020.0 |
| 20260507004512 | 61 | 178 | 1.0 | 1.0 | 0.00 | 0.00 | 0.00 | 84 | 1020.3 |
| 20260507004013 | 61 | 243 | 1.0 | 1.0 | 0.00 | 0.00 | 0.00 | 84 | 1020.3 |
| 20260507003510 | 61 | 166 | 0.0 | 0.0 | 0.00 | 0.00 | 0.00 | 83 | 1020.0 |
| 20260507003023 | 61 | 168 | 0.0 | 0.0 | 0.00 | 0.00 | 0.00 | 82 | 1020.0 |
| 20260507002510 | 61 | 169 | 0.0 | 0.0 | 0.00 | 0.00 | 0.00 | 81 | 1020.0 |
| 20260507002014 | 61 | 169 | 0.0 | 1.0 | 0.00 | 0.00 | 0.00 | 81 | 1020.0 |
| 20260507001513 | 61 | 164 | 1.0 | 1.0 | 0.00 | 0.00 | 0.00 | 80 | 1020.0 |
| 20260507001012 | 61 | 172 | 0.0 | 0.0 | 0.00 | 0.00 | 0.00 | 80 | 1020.3 |
| 20260507000510 | 63 | 155 | 0.0 | 0.0 | 0.00 | 0.00 | 0.00 | 81 | 1020.3 |
| 20260507000034 | 63 | 180 | 1.0 | 1.0 | 0.00 | 0.00 | 0.00 | 80 | 1020.0 |
| 20260506235509 | 63 | 182 | 0.0 | 1.0 | 0.00 | 0.00 | 0.00 | 80 | 1020.0 |
| 20260506235013 | 63 | 172 | 0.0 | 1.0 | 0.00 | 0.00 | 0.00 | 80 | 1020.0 |
| 20260506234514 | 61 | 148 | 1.0 | 1.0 | 0.00 | 0.00 | 0.00 | 79 | 1020.0 |
| 20260506234013 | 61 | 173 | 1.0 | 1.0 | 0.00 | 0.00 | 0.00 | 81 | 1020.0 |
| 20260506233509 | 61 | 172 | 1.0 | 1.0 | 0.00 | 0.00 | 0.00 | 83 | 1020.0 |
| 20260506233023 | 61 | 230 | 1.0 | 3.0 | 0.00 | 0.00 | 0.00 | 84 | 1020.0 |
| 20260506232509 | 61 | 173 | 1.0 | 1.0 | 0.00 | 0.00 | 0.00 | 85 | 1020.0 |
| 20260506231513 | 61 | 159 | 1.0 | 1.0 | 0.00 | 0.00 | 0.00 | 90 | 1020.0 |
| 20260506231013 | 59 | 164 | 0.0 | 0.0 | 0.00 | 0.00 | 0.00 | 91 | 1020.0 |
| 20260506230509 | 59 | 220 | 2.0 | 2.0 | 0.00 | 0.00 | 0.00 | 90 | 1020.0 |
| 20260506230032 | 59 | 180 | 1.0 | 1.0 | 0.00 | 0.00 | 0.00 | 91 | 1020.0 |
| 20260506225511 | 59 | 287 | 2.0 | 2.0 | 0.00 | 0.00 | 0.00 | 91 | 1020.0 |
| 20260506224514 | 61 | 176 | 1.0 | 1.0 | 0.00 | 0.00 | 0.00 | 91 | 1019.6 |
| 20260506222510 | 61 | 180 | 1.0 | 1.0 | 0.00 | 0.00 | 0.00 | 88 | 1020.0 |
| 20260506222013 | 63 | 201 | 1.0 | 1.0 | 0.00 | 0.00 | 0.00 | 89 | 1019.6 |
| 20260506221514 | 63 | 173 | 0.0 | 2.0 | 0.00 | 0.00 | 0.00 | 90 | 1019.6 |
| 20260506220509 | 63 | 174 | 0.0 | 1.0 | 0.00 | 0.00 | 0.00 | 89 | 1019.6 |
| 20260506215510 | 63 | 169 | 2.0 | 3.0 | 0.00 | 0.08 | 0.08 | 89 | 1019.6 |
| 20260506215013 | 63 | 179 | 1.0 | 2.0 | 0.00 | 0.08 | 0.08 | 89 | 1019.6 |
| 20260506214513 | 63 | 179 | 0.0 | 0.0 | 0.00 | 0.08 | 0.08 | 88 | 1019.6 |
| 20260506214013 | 63 | 180 | 1.0 | 2.0 | 0.00 | 0.08 | 0.08 | 88 | 1019.6 |
| 20260506213509 | 64 | 260 | 1.0 | 1.0 | 0.00 | 0.08 | 0.08 | 87 | 1019.6 |
| 20260506212513 | 64 | 169 | 1.0 | 3.0 | 0.00 | 0.08 | 0.08 | 87 | 1019.6 |
| 20260506212013 | 64 | 255 | 1.0 | 1.0 | 0.00 | 0.08 | 0.08 | 88 | 1019.6 |
| 20260506211512 | 64 | 203 | 1.0 | 1.0 | 0.00 | 0.08 | 0.08 | 88 | 1019.6 |
| 20260506211013 | 64 | 163 | 2.0 | 3.0 | 0.00 | 0.08 | 0.08 | 88 | 1019.6 |
| 20260506210509 | 64 | 106 | 1.0 | 2.0 | 0.00 | 0.08 | 0.08 | 88 | 1019.6 |
| 20260506210032 | 64 | 170 | 0.0 | 1.0 | 0.00 | 0.08 | 0.08 | 87 | 1019.6 |
| 20260506205509 | 64 | 179 | 0.0 | 0.0 | 0.00 | 0.08 | 0.08 | 87 | 1019.6 |
| 20260506205013 | 64 | 180 | 1.0 | 1.0 | 0.00 | 0.08 | 0.08 | 87 | 1019.6 |
| 20260506204514 | 64 | 106 | 1.0 | 1.0 | 0.00 | 0.08 | 0.08 | 86 | 1019.6 |
| 20260506203509 | 64 | 150 | 1.0 | 1.0 | 0.00 | 0.08 | 0.08 | 86 | 1019.3 |
| 20260506203023 | 64 | 181 | 1.0 | 1.0 | 0.00 | 0.08 | 0.08 | 85 | 1019.3 |
| 20260506202013 | 64 | 164 | 3.0 | 5.0 | 0.00 | 0.08 | 0.08 | 84 | 1019.3 |
| 20260506201512 | 64 | 154 | 1.0 | 1.0 | 0.00 | 0.08 | 0.08 | 84 | 1019.3 |
| 20260506201013 | 64 | 163 | 0.0 | 0.0 | 0.00 | 0.08 | 0.08 | 83 | 1019.3 |
| 20260506200510 | 64 | 167 | 0.0 | 0.0 | 0.00 | 0.08 | 0.08 | 84 | 1019.3 |
| 20260506200031 | 64 | 170 | 0.0 | 1.0 | 0.00 | 0.08 | 0.08 | 84 | 1019.0 |
| 20260506195509 | 64 | 169 | 0.0 | 0.0 | 0.00 | 0.08 | 0.08 | 84 | 1019.0 |
| 20260506195013 | 64 | 165 | 1.0 | 1.0 | 0.00 | 0.08 | 0.08 | 84 | 1019.0 |
| 20260506194512 | 64 | 164 | 0.0 | 0.0 | 0.00 | 0.08 | 0.08 | 84 | 1019.0 |
| 20260506194013 | 64 | 213 | 1.0 | 1.0 | 0.00 | 0.08 | 0.08 | 83 | 1019.0 |
| 20260506193509 | 64 | 165 | 0.0 | 0.0 | 0.00 | 0.08 | 0.08 | 82 | 1018.3 |
| 20260506193024 | 64 | 167 | 1.0 | 1.0 | 0.00 | 0.08 | 0.08 | 81 | 1018.3 |
| 20260506192509 | 64 | 297 | 2.0 | 3.0 | 0.00 | 0.08 | 0.08 | 81 | 1018.3 |
| 20260506191015 | 64 | 188 | 2.0 | 3.0 | 0.00 | 0.08 | 0.08 | 83 | 1018.3 |
| 20260506190509 | 64 | 263 | 3.0 | 3.0 | 0.00 | 0.08 | 0.08 | 83 | 1018.3 |
| 20260506190033 | 64 | 168 | 0.0 | 1.0 | 0.00 | 0.08 | 0.08 | 83 | 1018.0 |
| 20260506185509 | 64 | 235 | 1.0 | 2.0 | 0.00 | 0.08 | 0.08 | 80 | 1018.0 |
| 20260506185013 | 64 | 170 | 0.0 | 1.0 | 0.00 | 0.08 | 0.08 | 79 | 1018.0 |
| 20260506184512 | 64 | 279 | 4.0 | 7.0 | 0.00 | 0.08 | 0.08 | 79 | 1018.0 |
| 20260506184014 | 66 | 228 | 0.0 | 1.0 | 0.00 | 0.08 | 0.08 | 78 | 1018.0 |
| 20260506183509 | 64 | 217 | 6.0 | 7.0 | 0.00 | 0.08 | 0.08 | 78 | 1018.0 |
| 20260506183023 | 64 | 180 | 1.0 | 1.0 | 0.00 | 0.08 | 0.08 | 79 | 1018.0 |
| 20260506182510 | 64 | 173 | 1.0 | 2.0 | 0.00 | 0.08 | 0.08 | 79 | 1018.0 |
| 20260506182014 | 66 | 171 | 3.0 | 4.0 | 0.00 | 0.08 | 0.08 | 80 | 1017.6 |
| 20260506181514 | 66 | 267 | 3.0 | 3.0 | 0.00 | 0.08 | 0.08 | 78 | 1017.6 |
| 20260506181020 | 66 | 268 | 2.0 | 3.0 | 0.00 | 0.08 | 0.08 | 79 | 1018.0 |
| 20260506180509 | 66 | 108 | 2.0 | 3.0 | 0.00 | 0.08 | 0.08 | 80 | 1018.0 |
| 20260506180033 | 66 | 171 | 1.0 | 1.0 | 0.00 | 0.08 | 0.08 | 80 | 1017.6 |
| 20260506175509 | 66 | 131 | 4.0 | 5.0 | 0.00 | 0.08 | 0.08 | 78 | 1017.6 |
| 20260506175013 | 66 | 172 | 0.0 | 0.0 | 0.00 | 0.08 | 0.08 | 78 | 1017.6 |
| 20260506174513 | 66 | 129 | 0.0 | 1.0 | 0.00 | 0.08 | 0.08 | 79 | 1017.6 |
| 20260506174013 | 66 | 173 | 1.0 | 5.0 | 0.00 | 0.08 | 0.08 | 80 | 1017.6 |
| 20260506173510 | 66 | 167 | 1.0 | 1.0 | 0.00 | 0.08 | 0.08 | 81 | 1018.0 |
| 20260506173027 | 66 | 160 | 1.0 | 3.0 | 0.00 | 0.08 | 0.08 | 82 | 1018.0 |
| 20260506172014 | 66 | 129 | 0.0 | 1.0 | 0.00 | 0.08 | 0.08 | 81 | 1017.6 |
| 20260506171513 | 66 | 141 | 1.0 | 1.0 | 0.00 | 0.08 | 0.08 | 82 | 1017.6 |
| 20260506171014 | 66 | 266 | 2.0 | 3.0 | 0.00 | 0.08 | 0.08 | 79 | 1017.6 |
| 20260506170509 | 66 | 171 | 1.0 | 1.0 | 0.00 | 0.08 | 0.08 | 80 | 1017.6 |
| 20260506170033 | 66 | 180 | 2.0 | 4.0 | 0.00 | 0.08 | 0.08 | 81 | 1017.6 |
| 20260506165510 | 66 | 143 | 1.0 | 2.0 | 0.00 | 0.08 | 0.08 | 81 | 1018.0 |
| 20260506165013 | 66 | 171 | 1.0 | 1.0 | 0.00 | 0.08 | 0.08 | 82 | 1018.0 |
| 20260506164512 | 66 | 67 | 1.0 | 3.0 | 0.00 | 0.08 | 0.08 | 82 | 1018.0 |
| 20260506164014 | 66 | 233 | 2.0 | 2.0 | 0.00 | 0.08 | 0.08 | 80 | 1018.0 |
| 20260506163026 | 66 | 140 | 2.0 | 2.0 | 0.00 | 0.08 | 0.08 | 81 | 1018.0 |
| 20260506162510 | 66 | 176 | 6.0 | 11.0 | 0.00 | 0.08 | 0.08 | 79 | 1018.0 |
| 20260506162013 | 66 | 103 | 2.0 | 3.0 | 0.00 | 0.08 | 0.08 | 77 | 1018.0 |
| 20260506161512 | 66 | 310 | 3.0 | 5.0 | 0.00 | 0.08 | 0.08 | 76 | 1018.0 |
| 20260506161014 | 68 | 170 | 1.0 | 1.0 | 0.00 | 0.08 | 0.08 | 76 | 1018.0 |
| 20260506160509 | 68 | 148 | 2.0 | 2.0 | 0.00 | 0.08 | 0.08 | 76 | 1018.0 |
| 20260506160035 | 68 | 180 | 1.0 | 1.0 | 0.00 | 0.08 | 0.08 | 76 | 1018.0 |
| 20260506155510 | 68 | 106 | 3.0 | 4.0 | 0.00 | 0.08 | 0.08 | 75 | 1018.0 |
| 20260506155014 | 70 | 160 | 1.0 | 1.0 | 0.00 | 0.08 | 0.08 | 73 | 1018.0 |
| 20260506154512 | 70 | 158 | 0.0 | 1.0 | 0.00 | 0.08 | 0.08 | 72 | 1018.0 |
| 20260506154014 | 70 | 161 | 0.0 | 0.0 | 0.00 | 0.08 | 0.08 | 72 | 1018.0 |
| 20260506153512 | 70 | 167 | 0.0 | 1.0 | 0.00 | 0.08 | 0.08 | 71 | 1018.0 |
| 20260506153025 | 70 | 168 | 0.0 | 0.0 | 0.00 | 0.08 | 0.08 | 70 | 1018.0 |
| 20260506152513 | 70 | 166 | 0.0 | 1.0 | 0.00 | 0.08 | 0.08 | 70 | 1018.0 |
| 20260506152012 | 70 | 151 | 1.0 | 1.0 | 0.00 | 0.08 | 0.08 | 69 | 1018.0 |
| 20260506151514 | 72 | 159 | 0.0 | 1.0 | 0.00 | 0.08 | 0.08 | 67 | 1018.0 |
| 20260506151013 | 73 | 141 | 0.0 | 1.0 | 0.00 | 0.08 | 0.08 | 66 | 1018.0 |
| 20260506150510 | 72 | 172 | 0.0 | 0.0 | 0.00 | 0.08 | 0.08 | 66 | 1018.0 |
| 20260506150034 | 72 | 143 | 0.0 | 1.0 | 0.00 | 0.08 | 0.08 | 66 | 1018.0 |
| 20260506145510 | 72 | 163 | 0.0 | 1.0 | 0.00 | 0.08 | 0.08 | 68 | 1018.0 |
| 20260506145014 | 72 | 176 | 1.0 | 1.0 | 0.00 | 0.08 | 0.08 | 66 | 1018.0 |
| 20260506144513 | 72 | 151 | 1.0 | 1.0 | 0.00 | 0.08 | 0.08 | 67 | 1018.0 |
| 20260506144013 | 70 | 281 | 2.0 | 6.0 | 0.00 | 0.08 | 0.08 | 66 | 1018.0 |
| 20260506143509 | 70 | 217 | 2.0 | 5.0 | 0.00 | 0.08 | 0.08 | 66 | 1018.0 |
| 20260506143024 | 70 | 190 | 4.0 | 5.0 | 0.00 | 0.08 | 0.08 | 66 | 1018.0 |
| 20260506142510 | 70 | 264 | 1.0 | 2.0 | 0.00 | 0.08 | 0.08 | 66 | 1018.0 |
| 20260506142013 | 70 | 270 | 1.0 | 2.0 | 0.00 | 0.08 | 0.08 | 65 | 1018.0 |
| 20260506141513 | 72 | 220 | 1.0 | 1.0 | 0.00 | 0.08 | 0.08 | 66 | 1018.0 |
| 20260506141013 | 72 | 102 | 1.0 | 2.0 | 0.00 | 0.08 | 0.08 | 66 | 1018.0 |
| 20260506140509 | 72 | 161 | 1.0 | 1.0 | 0.00 | 0.08 | 0.08 | 66 | 1018.0 |
| 20260506140033 | 72 | 257 | 4.0 | 8.0 | 0.00 | 0.08 | 0.08 | 65 | 1018.0 |
| 20260506135509 | 73 | 235 | 2.0 | 2.0 | 0.00 | 0.08 | 0.08 | 63 | 1018.0 |
| 20260506135014 | 73 | 164 | 2.0 | 4.0 | 0.00 | 0.08 | 0.08 | 59 | 1018.0 |
| 20260506134513 | 73 | 168 | 3.0 | 5.0 | 0.00 | 0.08 | 0.08 | 57 | 1018.0 |
| 20260506134015 | 75 | 313 | 2.0 | 2.0 | 0.00 | 0.08 | 0.08 | 54 | 1018.0 |
| 20260506133510 | 75 | 167 | 1.0 | 3.0 | 0.00 | 0.08 | 0.08 | 57 | 1018.0 |
| 20260506133024 | 73 | 170 | 1.0 | 3.0 | 0.00 | 0.08 | 0.08 | 59 | 1018.0 |
| 20260506132510 | 73 | 281 | 1.0 | 2.0 | 0.00 | 0.08 | 0.08 | 60 | 1018.0 |
| 20260506132014 | 72 | 210 | 2.0 | 2.0 | 0.00 | 0.08 | 0.08 | 63 | 1018.0 |
| 20260506131513 | 72 | 275 | 4.0 | 5.0 | 0.00 | 0.08 | 0.08 | 61 | 1018.0 |
| 20260506130510 | 72 | 226 | 5.0 | 6.0 | 0.00 | 0.08 | 0.08 | 64 | 1018.0 |
| 20260506130035 | 73 | 298 | 2.0 | 3.0 | 0.00 | 0.08 | 0.08 | 62 | 1018.0 |
| 20260506125509 | 73 | 282 | 4.0 | 7.0 | 0.00 | 0.08 | 0.08 | 63 | 1018.0 |
| 20260506125013 | 73 | 181 | 2.0 | 2.0 | 0.00 | 0.08 | 0.08 | 65 | 1018.0 |
| 20260506124513 | 72 | 229 | 4.0 | 6.0 | 0.00 | 0.08 | 0.08 | 66 | 1018.0 |
| 20260506124014 | 72 | 234 | 8.0 | 11.0 | 0.00 | 0.08 | 0.08 | 67 | 1018.0 |
| 20260506123509 | 72 | 258 | 6.0 | 11.0 | 0.00 | 0.08 | 0.08 | 66 | 1018.3 |
| 20260506123025 | 73 | 167 | 4.0 | 6.0 | 0.00 | 0.08 | 0.08 | 64 | 1018.3 |
| 20260506122509 | 72 | 264 | 8.0 | 10.0 | 0.00 | 0.08 | 0.08 | 65 | 1018.3 |
| 20260506122014 | 72 | 300 | 4.0 | 4.0 | 0.00 | 0.08 | 0.08 | 65 | 1018.0 |
| 20260506121513 | 72 | 280 | 4.0 | 8.0 | 0.00 | 0.08 | 0.08 | 66 | 1018.0 |
| 20260506121014 | 72 | 288 | 6.0 | 10.0 | 0.00 | 0.08 | 0.08 | 66 | 1018.3 |
| 20260506120509 | 72 | 250 | 4.0 | 4.0 | 0.00 | 0.08 | 0.08 | 67 | 1018.3 |
| 20260506120034 | 70 | 229 | 6.0 | 8.0 | 0.00 | 0.08 | 0.08 | 69 | 1018.3 |
| 20260506115509 | 70 | 309 | 6.0 | 8.0 | 0.00 | 0.08 | 0.08 | 69 | 1018.0 |
| 20260506115013 | 70 | 288 | 6.0 | 7.0 | 0.00 | 0.08 | 0.08 | 70 | 1018.0 |
| 20260506114512 | 70 | 181 | 3.0 | 6.0 | 0.00 | 0.08 | 0.08 | 69 | 1018.3 |
| 20260506114013 | 72 | 258 | 7.0 | 11.0 | 0.00 | 0.08 | 0.08 | 67 | 1018.3 |
| 20260506113510 | 72 | 289 | 6.0 | 7.0 | 0.00 | 0.08 | 0.08 | 66 | 1018.0 |
| 20260506113024 | 72 | 264 | 4.0 | 7.0 | 0.00 | 0.08 | 0.08 | 65 | 1018.0 |
| 20260506112509 | 72 | 300 | 4.0 | 9.0 | 0.00 | 0.08 | 0.08 | 66 | 1018.0 |
| 20260506112013 | 70 | 320 | 9.0 | 11.0 | 0.00 | 0.08 | 0.08 | 68 | 1017.6 |
| 20260506111513 | 70 | 147 | 7.0 | 9.0 | 0.00 | 0.08 | 0.08 | 69 | 1017.6 |
| 20260506111014 | 70 | 296 | 8.0 | 14.0 | 0.00 | 0.08 | 0.08 | 70 | 1018.0 |
| 20260506110510 | 70 | 255 | 6.0 | 11.0 | 0.00 | 0.08 | 0.08 | 70 | 1018.0 |
| 20260506110032 | 68 | 189 | 11.0 | 13.0 | 0.00 | 0.08 | 0.08 | 73 | 1018.0 |
| 20260506105510 | 70 | 273 | 11.0 | 14.0 | 0.00 | 0.08 | 0.08 | 69 | 1018.0 |
| 20260506105013 | 72 | 282 | 11.0 | 11.0 | 0.00 | 0.08 | 0.08 | 64 | 1018.0 |
| 20260506104513 | 70 | 284 | 9.0 | 10.0 | 0.00 | 0.08 | 0.08 | 68 | 1018.0 |
| 20260506104013 | 70 | 303 | 3.0 | 6.0 | 0.00 | 0.08 | 0.08 | 67 | 1018.0 |
| 20260506103508 | 70 | 305 | 6.0 | 11.0 | 0.00 | 0.08 | 0.08 | 69 | 1018.3 |
| 20260506103023 | 70 | 306 | 9.0 | 15.0 | 0.00 | 0.08 | 0.08 | 68 | 1018.3 |
| 20260506102509 | 70 | 301 | 4.0 | 5.0 | 0.00 | 0.08 | 0.08 | 69 | 1018.3 |
| 20260506102013 | 70 | 302 | 9.0 | 16.0 | 0.00 | 0.08 | 0.08 | 69 | 1019.0 |
| 20260506101513 | 68 | 123 | 4.0 | 7.0 | 0.00 | 0.08 | 0.08 | 73 | 1019.0 |
| 20260506101013 | 68 | 274 | 8.0 | 11.0 | 0.00 | 0.08 | 0.08 | 70 | 1018.3 |
| 20260506100509 | 66 | 249 | 6.0 | 8.0 | 0.00 | 0.08 | 0.08 | 74 | 1018.3 |
| 20260506100036 | 68 | 296 | 7.0 | 10.0 | 0.00 | 0.08 | 0.08 | 75 | 1018.3 |
| 20260506095509 | 66 | 264 | 6.0 | 7.0 | 0.00 | 0.08 | 0.08 | 75 | 1018.3 |
| 20260506095013 | 66 | 283 | 6.0 | 8.0 | 0.00 | 0.08 | 0.08 | 74 | 1018.3 |
| 20260506094513 | 68 | 310 | 6.0 | 9.0 | 0.00 | 0.08 | 0.08 | 72 | 1018.3 |
| 20260506094014 | 66 | 282 | 8.0 | 14.0 | 0.00 | 0.08 | 0.08 | 77 | 1018.3 |
| 20260506093510 | 66 | 280 | 6.0 | 8.0 | 0.00 | 0.08 | 0.08 | 78 | 1018.3 |
| 20260506093023 | 66 | 281 | 4.0 | 6.0 | 0.00 | 0.08 | 0.08 | 79 | 1018.3 |
| 20260506092509 | 64 | 171 | 4.0 | 7.0 | 0.00 | 0.08 | 0.08 | 84 | 1018.3 |
| 20260506092013 | 66 | 170 | 1.0 | 2.0 | 0.00 | 0.08 | 0.08 | 85 | 1018.0 |
| 20260506091512 | 66 | 210 | 2.0 | 3.0 | 0.00 | 0.08 | 0.08 | 85 | 1018.0 |
| 20260506091012 | 66 | 220 | 2.0 | 3.0 | 0.00 | 0.08 | 0.08 | 84 | 1017.6 |
| 20260506090509 | 66 | 148 | 3.0 | 6.0 | 0.00 | 0.08 | 0.08 | 83 | 1017.6 |
| 20260506090032 | 66 | 129 | 9.0 | 14.0 | 0.00 | 0.08 | 0.08 | 75 | 1017.6 |
| 20260506085509 | 66 | 174 | 3.0 | 5.0 | 0.00 | 0.08 | 0.08 | 81 | 1017.6 |
| 20260506085013 | 66 | 74 | 2.0 | 2.0 | 0.00 | 0.08 | 0.08 | 84 | 1017.6 |
| 20260506084513 | 66 | 102 | 1.0 | 1.0 | 0.00 | 0.08 | 0.08 | 85 | 1017.6 |
| 20260506084013 | 64 | 225 | 2.0 | 4.0 | 0.00 | 0.08 | 0.08 | 84 | 1017.6 |
| 20260506083509 | 64 | 309 | 8.0 | 12.0 | 0.00 | 0.08 | 0.08 | 84 | 1017.6 |
| 20260506083023 | 66 | 259 | 7.0 | 11.0 | 0.00 | 0.08 | 0.08 | 81 | 1017.6 |
| 20260506082510 | 66 | 307 | 4.0 | 5.0 | 0.00 | 0.08 | 0.08 | 81 | 1017.3 |
| 20260506082013 | 66 | 219 | 1.0 | 4.0 | 0.00 | 0.08 | 0.08 | 79 | 1017.3 |
| 20260506081512 | 66 | 127 | 2.0 | 3.0 | 0.00 | 0.08 | 0.08 | 80 | 1017.3 |
| 20260506081014 | 66 | 299 | 6.0 | 8.0 | 0.00 | 0.08 | 0.08 | 79 | 1017.3 |
| 20260506080509 | 64 | 267 | 10.0 | 15.0 | 0.00 | 0.08 | 0.08 | 82 | 1017.3 |
| 20260506073509 | 64 | 268 | 5.0 | 6.0 | 0.00 | 0.08 | 0.08 | 87 | 1017.6 |
| 20260506073023 | 64 | 264 | 1.0 | 1.0 | 0.00 | 0.08 | 0.08 | 87 | 1017.6 |
| 20260506072509 | 64 | 135 | 1.0 | 3.0 | 0.00 | 0.08 | 0.08 | 88 | 1017.6 |
| 20260506072013 | 64 | 268 | 13.0 | 17.0 | 0.00 | 0.08 | 0.08 | 87 | 1017.6 |
| 20260506071514 | 64 | 180 | 7.0 | 12.0 | 0.00 | 0.08 | 0.08 | 87 | 1017.6 |
| 20260506071013 | 64 | 249 | 6.0 | 14.0 | 0.00 | 0.08 | 0.08 | 87 | 1017.3 |
| 20260506070510 | 64 | 254 | 7.0 | 12.0 | 0.00 | 0.08 | 0.08 | 87 | 1017.3 |
| 20260506062509 | 63 | 260 | 6.0 | 7.0 | 0.00 | 0.08 | 0.08 | 90 | 1017.6 |
| 20260506062013 | 63 | 229 | 2.0 | 5.0 | 0.00 | 0.08 | 0.08 | 90 | 1017.6 |
| 20260506061513 | 63 | 198 | 5.0 | 8.0 | 0.00 | 0.08 | 0.08 | 89 | 1017.6 |
| 20260506061014 | 63 | 126 | 6.0 | 8.0 | 0.00 | 0.08 | 0.08 | 89 | 1017.3 |
| 20260506060510 | 63 | 226 | 3.0 | 5.0 | 0.00 | 0.08 | 0.08 | 90 | 1017.3 |
| 20260506051013 | 63 | 152 | 3.0 | 4.0 | 0.00 | 0.08 | 0.08 | 86 | 1017.3 |
| 20260506050509 | 63 | 90 | 4.0 | 4.0 | 0.00 | 0.08 | 0.08 | 87 | 1017.3 |
| 20260506045013 | 63 | 291 | 2.0 | 4.0 | 0.00 | 0.08 | 0.08 | 88 | 1017.3 |
| 20260506044512 | 63 | 269 | 3.0 | 6.0 | 0.00 | 0.08 | 0.08 | 87 | 1017.3 |
| 20260506044012 | 63 | 285 | 2.0 | 3.0 | 0.00 | 0.08 | 0.08 | 87 | 1017.3 |
| 20260506043509 | 63 | 11 | 3.0 | 9.0 | 0.00 | 0.08 | 0.08 | 86 | 1017.3 |